Total_Precipitation_Accumulation
0.00 0.00 0.00 0.00 0.00 0.00 0.00 0.00 0.00 0.00 0.00 0.00 0.00 0.00 0.00 0.00 0.00 0.00 0.07 0.16 0.12 0.03 0.03 0.02 0.06 0.10 0.02 0.05 0.06 0.02 0.01 0.03 0.04 0.01 0.00 0.00 0.00 0.00 0.01 0.02 0.04 0.18 0.11
0.01 0.00 0.00 0.00 0.00 0.00 0.00 0.00 0.00 0.00 0.00 0.00 0.00 0.00 0.00 0.00 0.00 0.03 0.14 0.19 0.13 0.05 0.02 0.02 0.06 0.11 0.06 0.11 0.20 0.09 0.02 0.03 0.04 0.00 0.00 0.00 0.00 0.00 0.01 0.01 0.02 0.05 0.10
0.04 0.04 0.02 0.01 0.00 0.00 0.00 0.00 0.00 0.00 0.00 0.00 0.00 0.00 0.00 0.00 0.00 0.08 0.24 0.11 0.09 0.04 0.02 0.01 0.05 0.09 0.11 0.19 0.22 0.15 0.10 0.04 0.01 0.00 0.00 0.00 0.00 0.00 0.00 0.01 0.02 0.02 0.02
0.02 0.01 0.00 0.01 0.01 0.02 0.00 0.00 0.01 0.01 0.00 0.00 0.00 0.00 0.00 0.00 0.06 0.17 0.11 0.08 0.07 0.05 0.05 0.04 0.06 0.05 0.14 0.22 0.24 0.23 0.07 0.01 0.00 0.00 0.00 0.00 0.00 0.00 0.00 0.00 0.01 0.00 0.01
0.06 0.06 0.07 0.10 0.10 0.09 0.07 0.08 0.08 0.10 0.08 0.07 0.05 0.03 0.02 0.11 0.16 0.11 0.07 0.10 0.10 0.06 0.07 0.04 0.03 0.05 0.13 0.23 0.26 0.03 0.01 0.00 0.00 0.00 0.00 0.00 0.00 0.00 0.00 0.00 0.00 0.00 0.02
0.12 0.12 0.11 0.13 0.12 0.09 0.09 0.05 0.03 0.03 0.02 0.01 0.03 0.03 0.04 0.16 0.13 0.11 0.06 0.06 0.08 0.07 0.05 0.04 0.03 0.06 0.09 0.17 0.18 0.04 0.00 0.00 0.00 0.00 0.00 0.00 0.00 0.00 0.00 0.00 0.00 0.00 0.00
0.37 0.28 0.29 0.27 0.18 0.09 0.04 0.01 0.01 0.00 0.01 0.00 0.00 0.00 0.12 0.10 0.10 0.09 0.09 0.07 0.07 0.08 0.06 0.04 0.04 0.19 0.12 0.12 0.08 0.04 0.00 0.00 0.00 0.00 0.00 0.00 0.00 0.00 0.00 0.00 0.00 0.00 0.00
0.20 0.22 0.28 0.24 0.20 0.08 0.08 0.06 0.07 0.07 0.04 0.00 0.00 0.04 0.09 0.08 0.08 0.09 0.08 0.05 0.06 0.06 0.04 0.03 0.14 0.15 0.12 0.04 0.04 0.03 0.01 0.00 0.00 0.00 0.00 0.00 0.00 0.00 0.00 0.00 0.03 0.01 0.00
0.02 0.02 0.07 0.11 0.05 0.08 0.03 0.06 0.03 0.07 0.15 0.03 0.02 0.08 0.18 0.18 0.20 0.20 0.14 0.19 0.11 0.09 0.06 0.07 0.11 0.09 0.15 0.16 0.02 0.03 0.00 0.01 0.01 0.00 0.00 0.00 0.00 0.00 0.00 0.00 0.01 0.00 0.00
0.00 0.00 0.02 0.08 0.12 0.13 0.05 0.01 0.02 0.16 0.25 0.22 0.25 0.38 0.42 0.35 0.28 0.39 0.35 0.32 0.39 0.34 0.17 0.09 0.08 0.13 0.13 0.18 0.03 0.01 0.01 0.00 0.00 0.00 0.00 0.00 0.00 0.00 0.00 0.01 0.01 0.01 0.00
0.00 0.01 0.03 0.08 0.14 0.07 0.12 0.23 0.27 0.46 0.60 0.46 0.36 0.40 0.57 0.75 0.78 0.87 0.99 1.07 0.99 0.55 0.20 0.12 0.05 0.07 0.09 0.10 0.05 0.02 0.03 0.01 0.01 0.00 0.00 0.00 0.00 0.00 0.00 0.00 0.01 0.01 0.01
0.00 0.00 0.05 0.06 0.11 0.12 0.29 0.45 0.48 0.57 0.69 0.67 0.68 0.80 1.11 1.38 1.58 1.67 1.64 1.43 0.78 0.21 0.06 0.04 0.05 0.12 0.06 0.07 0.06 0.05 0.04 0.03 0.00 0.00 0.00 0.00 0.00 0.00 0.00 0.00 0.00 0.01 0.05
0.00 0.00 0.01 0.04 0.09 0.19 0.47 0.62 0.78 0.86 1.13 1.63 1.85 2.46 2.55 2.46 1.97 1.26 0.60 0.23 0.08 0.03 0.02 0.06 0.08 0.07 0.04 0.05 0.10 0.10 0.05 0.03 0.01 0.00 0.00 0.00 0.00 0.00 0.00 0.00 0.00 0.01 0.05
0.00 0.00 0.00 0.00 0.03 0.14 1.01 2.13 2.48 2.50 2.56 2.46 2.48 2.26 1.76 1.19 0.61 0.19 0.05 0.03 0.04 0.06 0.08 0.05 0.04 0.04 0.03 0.02 0.03 0.06 0.03 0.03 0.02 0.01 0.00 0.00 0.00 0.00 0.00 0.00 0.00 0.00 0.02
0.00 0.00 0.00 0.00 0.00 0.01 0.18 0.78 1.44 1.80 1.64 1.53 1.27 1.00 0.49 0.26 0.12 0.04 0.01 0.01 0.01 0.03 0.03 0.04 0.05 0.02 0.01 0.02 0.02 0.04 0.04 0.03 0.01 0.01 0.01 0.00 0.00 0.00 0.00 0.00 0.00 0.00 0.01
0.00 0.00 0.01 0.00 0.00 0.00 0.01 0.04 0.05 0.15 0.38 0.26 0.19 0.14 0.08 0.07 0.03 0.01 0.01 0.01 0.01 0.01 0.01 0.02 0.04 0.04 0.04 0.07 0.09 0.07 0.06 0.04 0.01 0.01 0.01 0.01 0.00 0.00 0.00 0.00 0.00 0.00 0.01
0.01 0.02 0.01 0.01 0.01 0.01 0.01 0.00 0.00 0.16 0.62 0.68 0.45 0.24 0.07 0.02 0.01 0.02 0.02 0.03 0.03 0.03 0.01 0.01 0.05 0.07 0.05 0.07 0.10 0.05 0.04 0.03 0.03 0.04 0.02 0.01 0.00 0.00 0.00 0.00 0.00 0.00 0.00
0.03 0.06 0.06 0.06 0.03 0.02 0.04 0.03 0.05 0.05 0.30 0.32 0.26 0.16 0.07 0.02 0.01 0.01 0.02 0.03 0.02 0.03 0.00 0.01 0.02 0.05 0.10 0.10 0.15 0.12 0.08 0.08 0.07 0.03 0.02 0.00 0.01 0.00 0.00 0.00 0.00 0.00 0.00
0.09 0.11 0.11 0.09 0.03 0.07 0.10 0.12 0.11 0.07 0.07 0.10 0.06 0.05 0.04 0.04 0.03 0.03 0.03 0.00 0.00 0.00 0.00 0.00 0.02 0.02 0.05 0.12 0.15 0.18 0.19 0.13 0.09 0.09 0.05 0.02 0.01 0.01 0.00 0.00 0.00 0.00 0.00
0.10 0.11 0.08 0.07 0.04 0.05 0.11 0.17 0.15 0.16 0.20 0.19 0.14 0.07 0.05 0.08 0.09 0.06 0.04 0.02 0.02 0.05 0.03 0.01 0.01 0.03 0.03 0.11 0.14 0.16 0.27 0.33 0.27 0.23 0.13 0.06 0.02 0.01 0.01 0.02 0.02 0.02 0.00
0.08 0.05 0.09 0.06 0.03 0.05 0.10 0.16 0.18 0.26 0.24 0.21 0.16 0.14 0.17 0.12 0.07 0.08 0.10 0.12 0.14 0.24 0.33 0.11 0.02 0.02 0.04 0.07 0.12 0.14 0.17 0.20 0.43 0.48 0.59 0.31 0.09 0.02 0.01 0.02 0.04 0.05 0.05
0.05 0.08 0.07 0.08 0.06 0.06 0.10 0.17 0.20 0.25 0.27 0.32 0.36 0.34 0.27 0.11 0.11 0.12 0.15 0.18 0.26 0.21 0.09 0.08 0.13 0.07 0.06 0.07 0.10 0.14 0.20 0.16 0.21 0.40 0.31 0.37 0.54 0.10 0.03 0.01 0.02 0.04 0.05
0.04 0.06 0.07 0.10 0.11 0.12 0.11 0.11 0.17 0.18 0.24 0.32 0.34 0.36 0.44 0.37 0.30 0.28 0.26 0.31 0.36 0.48 0.37 0.21 0.19 0.12 0.05 0.10 0.12 0.10 0.14 0.12 0.16 0.19 0.18 0.22 0.23 0.10 0.08 0.02 0.03 0.07 0.06
0.06 0.06 0.08 0.13 0.20 0.20 0.16 0.12 0.11 0.14 0.14 0.11 0.13 0.21 0.28 0.37 0.52 0.48 0.45 0.34 0.37 0.44 0.58 0.50 0.25 0.12 0.07 0.04 0.05 0.10 0.13 0.14 0.20 0.23 0.25 0.25 0.23 0.11 0.11 0.04 0.03 0.05 0.08
0.15 0.18 0.22 0.25 0.30 0.29 0.38 0.31 0.23 0.22 0.23 0.25 0.26 0.23 0.19 0.22 0.26 0.34 0.47 0.55 0.44 0.38 0.60 0.86 0.81 0.35 0.18 0.19 0.10 0.08 0.11 0.16 0.19 0.27 0.29 0.31 0.26 0.17 0.09 0.06 0.06 0.05 0.06
0.16 0.19 0.26 0.29 0.27 0.23 0.35 0.57 0.52 0.45 0.40 0.41 0.42 0.31 0.23 0.22 0.24 0.22 0.23 0.23 0.37 0.43 0.38 0.72 1.06 1.16 0.54 0.40 0.52 0.33 0.25 0.21 0.20 0.27 0.27 0.27 0.29 0.21 0.17 0.11 0.09 0.04 0.02